GW5236 Weather Reports


Display with metric or nautical units.
time (UTC)temp
F
wind
direction
speed
MPH
gust
MPH
rain 1hr
in
rain 24hr
in
rain mn
in
humidity
%
barometer
mb
20260508175011 64 198 3.0 9.0 0.00 0.00 0.00 53 1011.6
20260508174534 64 191 3.0 14.0 0.00 0.00 0.00 53 1011.8
20260508174011 64 336 2.0 14.0 0.00 0.00 0.00 53 1011.9
20260508173509 64 248 5.0 12.0 0.00 0.00 0.00 51 1012.0
20260508173025 64 184 4.0 11.0 0.00 0.00 0.00 55 1012.1
20260508172509 63 190 6.0 11.0 0.00 0.00 0.00 54 1012.2
20260508172011 62 238 3.0 10.0 0.00 0.00 0.00 56 1012.4
20260508171525 62 258 4.0 10.0 0.00 0.00 0.00 55 1012.6
20260508171011 62 201 3.0 7.0 0.00 0.00 0.00 57 1012.7
20260508170509 62 188 2.0 8.0 0.00 0.00 0.00 58 1012.7
20260508170034 61 251 3.0 10.0 0.00 0.00 0.00 56 1012.8
20260508165509 61 268 4.0 10.0 0.00 0.00 0.00 57 1013.0
20260508165015 60 252 2.0 9.0 0.00 0.00 0.00 56 1013.1
20260508164536 60 265 2.0 9.0 0.00 0.00 0.00 56 1013.1
20260508164003 60 270 3.0 8.0 0.00 0.00 0.00 56 1013.1
20260508163504 60 149 1.0 11.0 0.00 0.00 0.00 56 1013.1
20260508163014 61 313 5.0 11.0 0.00 0.00 0.00 56 1013.1
20260508162502 61 265 3.0 12.0 0.00 0.00 0.00 56 1013.1
20260508162003 61 322 4.0 12.0 0.00 0.00 0.00 55 1013.1
20260508161519 60 273 3.0 12.0 0.00 0.00 0.00 56 1013.1
20260508161007 61 292 6.0 12.0 0.00 0.00 0.00 55 1013.2
20260508160510 60 252 5.0 10.0 0.00 0.00 0.00 57 1013.2
20260508160021 60 302 4.0 13.0 0.00 0.00 0.00 55 1013.2
20260508155503 60 154 5.0 14.0 0.00 0.00 0.00 56 1013.3
20260508155003 60 265 6.0 16.0 0.00 0.00 0.00 56 1013.3
20260508154506 59 213 7.0 16.0 0.00 0.00 0.00 54 1013.3
20260508154002 59 255 6.0 13.0 0.00 0.00 0.00 55 1013.4
20260508153503 59 286 5.0 13.0 0.00 0.00 0.00 55 1013.4
20260508152507 57 229 2.0 11.0 0.00 0.00 0.00 61 1013.4
20260508152010 57 305 3.0 6.0 0.00 0.00 0.00 63 1013.4
20260508151522 56 221 2.0 7.0 0.00 0.00 0.00 63 1013.4
20260508151007 55 231 2.0 8.0 0.00 0.00 0.00 64 1013.6
20260508150509 55 286 3.0 8.0 0.00 0.00 0.00 62 1013.5
20260508150020 55 171 3.0 6.0 0.00 0.00 0.00 62 1013.5
20260508145508 54 314 2.0 9.0 0.00 0.00 0.00 63 1013.6
20260508145010 54 221 1.0 9.0 0.00 0.00 0.00 64 1013.8
20260508144528 54 205 4.0 11.0 0.00 0.00 0.00 64 1013.8
20260508144003 53 170 3.0 11.0 0.00 0.00 0.00 65 1013.7
20260508143504 53 153 4.0 10.0 0.00 0.00 0.00 66 1013.6
20260508143009 53 200 1.0 9.0 0.00 0.00 0.00 67 1013.7
20260508142504 52 219 2.0 6.0 0.00 0.00 0.00 67 1013.7
20260508142007 52 178 2.0 5.0 0.00 0.00 0.00 68 1013.8
20260508141513 51 188 1.0 6.0 0.00 0.00 0.00 68 1013.9
20260508141007 51 190 2.0 6.0 0.00 0.00 0.00 68 1013.9
20260508140503 51 213 2.0 6.0 0.00 0.00 0.00 69 1013.9
20260508140022 51 189 2.0 6.0 0.00 0.00 0.00 69 1013.9
20260508135507 51 165 1.0 5.0 0.00 0.00 0.00 69 1013.8
20260508135010 51 190 1.0 7.0 0.00 0.00 0.00 69 1013.8
20260508134530 51 194 2.0 7.0 0.00 0.00 0.00 68 1013.8
20260508134010 51 306 1.0 8.0 0.00 0.00 0.00 67 1013.8
20260508133507 51 186 2.0 8.0 0.00 0.00 0.00 68 1013.9
20260508133007 51 296 1.0 7.0 0.00 0.00 0.00 68 1013.9
20260508132505 51 233 1.0 10.0 0.00 0.00 0.00 67 1013.8
20260508132004 51 142 3.0 10.0 0.00 0.00 0.00 66 1013.8
20260508131510 51 10 2.0 6.0 0.00 0.00 0.00 68 1013.7
20260508131004 51 288 2.0 10.0 0.00 0.00 0.00 68 1013.9
20260508130505 51 204 3.0 10.0 0.00 0.00 0.00 67 1013.8
20260508130027 51 197 2.0 5.0 0.00 0.00 0.00 67 1013.8
20260508125508 50 251 2.0 7.0 0.00 0.00 0.00 68 1013.8
20260508125009 50 219 1.0 7.0 0.00 0.00 0.00 69 1013.7
20260508124519 50 216 1.0 7.0 0.00 0.00 0.00 69 1013.6
20260508124010 50 214 3.0 10.0 0.00 0.00 0.00 69 1013.5
20260508123509 50 198 4.0 10.0 0.00 0.00 0.00 70 1013.6
20260508123022 49 291 2.0 9.0 0.00 0.00 0.00 71 1013.7
20260508122513 49 233 2.0 8.0 0.00 0.00 0.00 71 1013.6
20260508122015 49 212 0.0 8.0 0.00 0.00 0.00 71 1013.4
20260508121507 49 228 1.0 6.0 0.00 0.00 0.00 71 1013.3
20260508121004 48 284 2.0 6.0 0.00 0.00 0.00 72 1013.3
20260508120503 48 152 1.0 4.0 0.00 0.00 0.00 72 1013.4
20260508120014 47 165 2.0 3.0 0.00 0.00 0.00 73 1013.4
20260508115505 47 196 0.0 4.0 0.00 0.00 0.00 75 1013.6
20260508115006 47 196 1.0 4.0 0.00 0.00 0.00 74 1013.5
20260508114522 47 199 1.0 4.0 0.00 0.00 0.00 74 1013.5
20260508114008 46 187 1.0 4.0 0.00 0.00 0.00 74 1013.4
20260508113510 46 200 1.0 2.0 0.00 0.00 0.00 74 1013.4
20260508113022 46 215 0.0 2.0 0.00 0.00 0.00 75 1013.2
20260508112508 45 181 0.0 2.0 0.00 0.00 0.00 75 1013.1
20260508112009 45 199 1.0 2.0 0.00 0.00 0.00 75 1013.1
20260508111525 45 203 0.0 3.0 0.00 0.00 0.00 76 1013.1
20260508111011 45 177 0.0 3.0 0.00 0.00 0.00 75 1013.1
20260508110509 44 194 1.0 3.0 0.00 0.00 0.00 75 1013.1
20260508110010 44 209 0.0 2.0 0.00 0.00 0.00 76 1013.1
20260508105505 44 189 0.0 2.0 0.00 0.00 0.00 76 1013.1
20260508105005 44 193 0.0 2.0 0.00 0.00 0.00 76 1013.1
20260508104514 43 193 0.0 2.0 0.00 0.00 0.00 76 1013.1
20260508104001 43 169 1.0 2.0 0.00 0.00 0.00 76 1013.2
20260508103501 43 207 0.0 2.0 0.00 0.00 0.00 76 1013.3
20260508103001 43 207 1.0 2.0 0.00 0.00 0.00 76 1013.2
20260508102501 43 209 0.0 2.0 0.00 0.00 0.00 76 1013.0
20260508102001 43 247 0.0 2.0 0.00 0.00 0.00 76 1013.1
20260508101516 43 171 0.0 2.0 0.00 0.00 0.00 77 1013.0
20260508101001 42 165 1.0 2.0 0.00 0.00 0.00 77 1013.0
20260508100501 42 132 0.0 2.0 0.00 0.00 0.00 78 1013.0
20260508100015 42 132 0.0 2.0 0.00 0.00 0.00 79 1013.0
20260508095509 42 132 0.0 2.0 0.00 0.00 0.00 80 1012.9
20260508095005 42 132 0.0 2.0 0.00 0.00 0.00 80 1012.9
20260508094517 42 132 0.0 2.0 0.00 0.00 0.00 81 1013.0
20260508094008 42 132 0.0 2.0 0.00 0.00 0.00 80 1013.0
20260508093505 42 132 0.0 2.0 0.00 0.00 0.00 80 1012.9
20260508093005 42 132 0.0 2.0 0.00 0.00 0.00 81 1012.9
20260508092501 42 132 0.0 2.0 0.00 0.00 0.00 80 1012.9
20260508092002 42 132 0.0 2.0 0.00 0.00 0.00 80 1013.0
20260508091513 42 132 0.0 2.0 0.00 0.00 0.00 79 1012.9
20260508091004 42 132 0.0 2.0 0.00 0.00 0.00 79 1013.0
20260508090502 42 132 0.0 2.0 0.00 0.00 0.00 80 1013.0
20260508090010 41 132 0.0 2.0 0.00 0.00 0.00 81 1013.0
20260508085005 42 132 0.0 0.0 0.00 0.00 0.00 82 1013.1
20260508084509 42 132 0.0 0.0 0.00 0.00 0.00 81 1013.1
20260508084006 43 132 0.0 1.0 0.00 0.00 0.00 80 1013.1
20260508083015 43 132 0.0 2.0 0.00 0.00 0.00 79 1013.0
20260508082510 43 132 0.0 2.0 0.00 0.00 0.00 80 1013.0
20260508082002 43 132 0.0 2.0 0.00 0.00 0.00 79 1013.0
20260508081509 44 132 0.0 2.0 0.00 0.00 0.00 78 1012.9
20260508081004 43 132 0.0 2.0 0.00 0.00 0.00 78 1013.0
20260508080504 43 132 0.0 2.0 0.00 0.00 0.00 79 1013.0
20260508080007 43 132 0.0 2.0 0.00 0.00 0.00 80 1013.0
20260508075504 43 132 0.0 2.0 0.00 0.00 0.00 81 1013.0
20260508075004 43 132 0.0 2.0 0.00 0.00 0.00 82 1013.1
20260508074514 43 132 0.0 2.0 0.00 0.00 0.00 82 1013.1
20260508074003 43 132 0.0 2.0 0.00 0.00 0.00 82 1013.0
20260508073505 43 132 0.0 2.0 0.00 0.00 0.00 82 1013.0
20260508073014 43 132 0.0 2.0 0.00 0.00 0.00 84 1013.0
20260508072505 43 132 0.0 1.0 0.00 0.00 0.00 87 1013.0
20260508072008 43 132 0.0 1.0 0.00 0.00 0.00 87 1013.1
20260508071519 43 132 0.0 2.0 0.00 0.00 0.00 87 1013.1
20260508070503 44 132 0.0 0.0 0.00 0.00 0.00 85 1013.2
20260508070005 44 132 0.0 2.0 0.00 0.00 0.00 85 1013.3
20260508065502 44 132 0.0 2.0 0.00 0.00 0.00 83 1013.3
20260508065004 44 132 0.0 2.0 0.00 0.00 0.00 84 1013.4
20260508064508 45 132 0.0 2.0 0.00 0.00 0.00 85 1013.4
20260508063505 46 132 0.0 2.0 0.00 0.00 0.00 84 1013.3
20260508063015 46 240 0.0 2.0 0.00 0.00 0.00 83 1013.4
20260508062504 46 240 0.0 2.0 0.00 0.00 0.00 82 1013.4
20260508062006 47 126 1.0 2.0 0.00 0.00 0.00 82 1013.4
20260508061517 47 126 0.0 2.0 0.00 0.00 0.00 81 1013.5
20260508061007 47 126 0.0 3.0 0.00 0.00 0.00 81 1013.6
20260508060510 47 126 2.0 3.0 0.00 0.00 0.00 78 1013.7
20260508060021 47 60 1.0 3.0 0.00 0.00 0.00 77 1013.8
20260508055508 47 278 0.0 3.0 0.00 0.00 0.00 75 1014.2
20260508055003 47 349 0.0 3.0 0.00 0.00 0.00 77 1014.1
20260508054508 47 342 0.0 2.0 0.00 0.00 0.00 77 1014.4
20260508054005 47 342 0.0 2.0 0.00 0.00 0.00 78 1014.3
20260508053504 47 342 0.0 2.0 0.00 0.00 0.00 78 1014.2
20260508053010 47 342 1.0 2.0 0.00 0.00 0.00 79 1014.1
20260508052505 47 276 0.0 2.0 0.00 0.00 0.00 75 1014.1
20260508051511 47 159 0.0 2.0 0.00 0.00 0.00 73 1013.7
20260508050508 47 159 0.0 2.0 0.00 0.00 0.00 75 1013.6
20260508050032 47 159 0.0 0.0 0.00 0.00 0.00 75 1013.5
20260508045507 47 159 0.0 2.0 0.00 0.00 0.00 74 1013.5
20260508045007 47 159 0.0 2.0 0.00 0.00 0.00 74 1013.5
20260508044521 47 159 0.0 2.0 0.00 0.00 0.00 72 1013.6
20260508043504 47 159 0.0 2.0 0.00 0.00 0.00 72 1013.6
20260508043010 46 159 0.0 2.0 0.00 0.00 0.00 74 1013.7
20260508042504 46 159 0.0 2.0 0.00 0.00 0.00 78 1013.7
20260508042008 46 159 0.0 2.0 0.00 0.00 0.00 78 1013.6
20260508041512 46 159 0.0 2.0 0.00 0.00 0.00 79 1013.6
20260508041004 46 159 0.0 1.0 0.00 0.00 0.00 79 1013.7
20260508040507 46 159 0.0 2.0 0.00 0.00 0.00 79 1013.8
20260508040021 46 159 0.0 2.0 0.00 0.00 0.00 80 1013.8
20260508035506 46 159 0.0 2.0 0.00 0.00 0.00 81 1013.7
20260508035009 46 159 0.0 0.0 0.00 0.00 0.00 79 1013.9
20260508034522 46 159 0.0 0.0 0.00 0.00 0.00 79 1013.9
20260508034008 46 159 0.0 0.0 0.00 0.00 0.00 77 1014.0
20260508033510 46 159 0.0 0.0 0.00 0.00 0.00 77 1013.8
20260508033022 46 159 0.0 0.0 0.00 0.00 0.00 76 1013.9
20260508032505 46 159 0.0 0.0 0.00 0.00 0.00 76 1013.8
20260508032004 47 159 0.0 0.0 0.00 0.00 0.00 75 1013.8
20260508031512 47 159 0.0 0.0 0.00 0.00 0.00 74 1013.7
20260508031004 47 159 0.0 2.0 0.00 0.00 0.00 76 1013.8
20260508030507 47 159 0.0 2.0 0.00 0.00 0.00 76 1013.8
20260508030016 47 159 0.0 2.0 0.00 0.00 0.00 76 1013.8
20260508025006 47 159 0.0 2.0 0.00 0.00 0.00 76 1014.1
20260508024520 47 159 0.0 2.0 0.00 0.00 0.00 76 1014.1
20260508024008 47 159 0.0 2.0 0.00 0.00 0.00 75 1013.9
20260508023509 47 159 0.0 1.0 0.00 0.00 0.00 73 1013.8
20260508023021 47 159 0.0 2.0 0.00 0.00 0.00 71 1013.9
20260508022011 47 159 0.0 2.0 0.00 0.00 0.00 70 1013.8
20260508021528 47 159 0.0 0.0 0.00 0.00 0.00 68 1013.8
20260508021004 48 159 0.0 2.0 0.00 0.00 0.00 68 1013.8
20260508020505 49 159 0.0 2.0 0.00 0.00 0.00 66 1013.7
20260508020019 49 159 0.0 0.0 0.00 0.00 0.00 65 1013.7
20260508015505 50 159 0.0 2.0 0.00 0.00 0.00 65 1013.6
20260508015005 51 159 0.0 2.0 0.00 0.00 0.00 62 1013.6
20260508014520 51 159 0.0 2.0 0.00 0.00 0.00 59 1013.6
20260508014007 51 159 0.0 2.0 0.00 0.00 0.00 60 1013.5
20260508013505 51 159 1.0 2.0 0.00 0.00 0.00 55 1013.8
20260508013026 51 251 0.0 4.0 0.00 0.00 0.00 57 1013.7
20260508012512 51 228 0.0 5.0 0.00 0.00 0.00 56 1013.7
20260508012010 50 259 2.0 5.0 0.00 0.00 0.00 58 1013.6
20260508011526 49 279 2.0 4.0 0.00 0.00 0.00 66 1013.6
20260508011008 49 234 0.0 1.0 0.00 0.00 0.00 66 1013.6
20260508010509 49 234 0.0 0.0 0.00 0.00 0.00 66 1013.6
20260508010027 50 234 0.0 2.0 0.00 0.00 0.00 64 1013.5
20260508005507 50 234 0.0 2.0 0.00 0.00 0.00 61 1013.5
20260508005007 51 234 0.0 0.0 0.00 0.00 0.00 64 1013.6
20260508004516 51 234 0.0 0.0 0.00 0.00 0.00 59 1013.4
20260508004005 51 234 0.0 0.0 0.00 0.00 0.00 58 1013.4
20260508003505 52 234 0.0 0.0 0.00 0.00 0.00 56 1013.4
20260508003024 52 234 0.0 0.0 0.00 0.00 0.00 55 1013.4
20260508002505 52 234 0.0 0.0 0.00 0.00 0.00 53 1013.3
20260508002011 52 234 0.0 0.0 0.00 0.00 0.00 52 1013.3
20260508001538 53 234 0.0 0.0 0.00 0.00 0.00 52 1013.3
20260508001008 53 234 0.0 2.0 0.00 0.00 0.00 50 1013.3
20260508000511 53 234 0.0 2.0 0.00 0.00 0.00 49 1013.3
20260508000025 54 234 0.0 3.0 0.00 0.00 0.00 48 1013.2
20260507235509 54 211 0.0 4.0 0.00 0.00 0.00 47 1013.2
20260507235010 54 207 1.0 4.0 0.00 0.00 0.00 46 1013.1
20260507234511 55 248 0.0 4.0 0.00 0.00 0.00 46 1013.1
20260507234051 55 278 1.0 7.0 0.00 0.00 0.00 45 1013.1
20260507233507 55 265 1.0 7.0 0.00 0.00 0.00 43 1013.1
20260507233019 55 297 1.0 5.0 0.00 0.00 0.00 44 1013.1
20260507232509 56 296 1.0 6.0 0.00 0.00 0.00 43 1013.0
20260507232007 56 175 1.0 7.0 0.00 0.00 0.00 42 1013.1
20260507231529 57 266 3.0 7.0 0.00 0.00 0.00 42 1013.1
20260507231007 57 270 1.0 5.0 0.00 0.00 0.00 42 1013.1
20260507230509 57 266 1.0 3.0 0.00 0.00 0.00 42 1013.0
20260507230027 57 328 1.0 4.0 0.00 0.00 0.00 43 1013.1
20260507225510 57 263 1.0 8.0 0.00 0.00 0.00 43 1013.2
20260507225010 57 259 3.0 8.0 0.00 0.00 0.00 40 1013.2
20260507224537 58 250 3.0 7.0 0.00 0.00 0.00 40 1013.3
20260507224011 58 298 1.0 7.0 0.00 0.00 0.00 44 1013.2
20260507223515 58 231 2.0 8.0 0.00 0.00 0.00 43 1013.4
20260507223016 57 279 2.0 8.0 0.00 0.00 0.00 41 1013.4
20260507222507 58 313 2.0 7.0 0.00 0.00 0.00 43 1013.4
20260507222008 58 256 2.0 9.0 0.00 0.00 0.00 40 1013.4
20260507221522 58 269 2.0 10.0 0.00 0.00 0.00 42 1013.4
20260507221009 58 293 5.0 10.0 0.00 0.00 0.00 40 1013.4
20260507220506 58 286 2.0 6.0 0.00 0.00 0.00 41 1013.4
20260507220036 57 185 1.0 9.0 0.00 0.00 0.00 42 1013.4
20260507215010 55 243 3.0 9.0 0.00 0.00 0.00 42 1013.5
20260507214535 55 282 2.0 10.0 0.00 0.00 0.00 43 1013.3
20260507214008 55 294 4.0 10.0 0.00 0.00 0.00 41 1013.2
20260507213512 55 257 4.0 10.0 0.00 0.00 0.00 41 1013.2
20260507213027 56 261 4.0 10.0 0.00 0.00 0.00 40 1013.2
20260507212511 56 260 2.0 9.0 0.00 0.00 0.00 44 1013.3
20260507212007 56 313 3.0 8.0 0.00 0.00 0.00 42 1013.3
20260507211518 56 279 2.0 11.0 0.00 0.00 0.00 42 1013.3
20260507211008 57 269 3.0 11.0 0.00 0.00 0.00 42 1013.1
20260507210507 58 283 5.0 12.0 0.00 0.00 0.00 42 1013.1
20260507210020 58 5 3.0 12.0 0.00 0.00 0.00 42 1013.1
20260507205508 57 176 4.0 9.0 0.00 0.00 0.00 41 1013.1
20260507205009 57 314 5.0 9.0 0.00 0.00 0.00 43 1013.2
20260507204524 56 234 2.0 10.0 0.00 0.00 0.00 42 1013.2
20260507204013 58 15 5.0 10.0 0.00 0.00 0.00 40 1013.2
20260507203510 58 301 5.0 9.0 0.00 0.00 0.00 45 1013.1
20260507203032 58 352 3.0 10.0 0.00 0.00 0.00 48 1013.0
20260507202509 57 319 3.0 11.0 0.00 0.00 0.00 40 1013.0
20260507202013 57 288 5.0 11.0 0.00 0.00 0.00 42 1013.1
20260507201527 58 222 3.0 10.0 0.00 0.00 0.00 48 1013.1
20260507201008 57 59 3.0 12.0 0.00 0.00 0.00 44 1013.1
20260507200508 57 5 4.0 15.0 0.00 0.00 0.00 45 1013.2
20260507200020 56 248 7.0 15.0 0.00 0.00 0.00 42 1013.4
20260507195506 57 271 2.0 11.0 0.00 0.00 0.00 43 1013.3
20260507195011 57 351 2.0 12.0 0.00 0.00 0.00 46 1013.2
20260507194505 57 286 5.0 12.0 0.00 0.00 0.00 44 1013.3
20260507194005 56 252 5.0 8.0 0.00 0.00 0.00 46 1013.2
20260507193504 55 257 2.0 11.0 0.00 0.00 0.00 46 1013.3
20260507193013 56 268 3.0 13.0 0.00 0.00 0.00 47 1013.4
20260507192504 56 259 3.0 13.0 0.00 0.00 0.00 49 1013.4
20260507192004 55 332 2.0 12.0 0.00 0.00 0.00 50 1013.4
20260507191514 56 225 3.0 13.0 0.00 0.00 0.00 47 1013.4
20260507191009 56 306 4.0 15.0 0.00 0.00 0.00 49 1013.3
20260507190505 56 278 6.0 15.0 0.00 0.00 0.00 45 1013.5
20260507190020 56 313 3.0 9.0 0.00 0.00 0.00 45 1013.6
20260507185511 56 275 4.0 12.0 0.00 0.00 0.00 47 1013.6
20260507185009 56 282 5.0 12.0 0.00 0.00 0.00 48 1013.6
20260507184523 56 257 5.0 9.0 0.00 0.00 0.00 45 1013.6
20260507184003 56 290 3.0 9.0 0.00 0.00 0.00 45 1013.6
20260507183504 56 236 3.0 9.0 0.00 0.00 0.00 56 1013.6
20260507183008 55 236 3.0 11.0 0.00 0.00 0.00 47 1013.6
20260507182505 55 255 7.0 11.0 0.00 0.00 0.00 49 1013.7
20260507182005 56 300 4.0 10.0 0.00 0.00 0.00 49 1013.7
20260507181512 55 295 4.0 12.0 0.00 0.00 0.00 49 1013.7
20260507181004 55 269 5.0 12.0 0.00 0.00 0.00 51 1013.8
20260507180511 55 232 5.0 12.0 0.00 0.00 0.00 49 1013.7
20260507180016 55 297 5.0 12.0 0.00 0.00 0.00 48 1013.8
20260507175508 55 282 5.0 11.0 0.00 0.00 0.00 47 1013.9